STARLINK-30563, 58042

Orbit data source: Space-Track

STARLINK-30563, 58042 is a payload satellite owned by SpaceX/Seattle (US) in LEO that was launched on Mon, 09 Oct 2023 UTC via an FALCON 9 launch vehicle from the Air Force Western Test Range (AFWTR). Payload-class satellites include a variety of spacecraft equipped with specific instruments for various scientific and technological missions. These include communications satellites like Starlink; space stations such as the ISS; scientific satellites like the Hubble; Earth observation satellites from companies like Planet Labs, Umbra, and HawkEye 360; GPS; miniature CubeSats for education and research; and military/defense satellites.

Loading next visibility...
Identifier
58042, 2023-156Q
Orbit
LEO
Country
Flag of USUS
Related business
Manufacturer
SpaceX/Seattle
Mission
Operational Commercial Communications
Bus & Motor
STARLINK V2M, Unknown motor
Mass
730 kg wet, ~700 kg dry
Launch date (UTC)
2023-10-09 (3 years ago)
Launch vehicle
FALCON 9
Launch site
Air Force Western Test Range (AFWTR)
Object type
Payload
Rocket body
Debris
Shape & HBR
Box + 2 Pan, 17.7 m
Radar Cross Section
33.884 m², Large (>1 m²)

Expand to show TLE details & history
Last TLE update: 3 days ago

TLE from 3 days ago
0 STARLINK-30563
1 58042U 23156Q   26170.79669212  .00002546  00000-0  98063-4 0  9991
2 58042  53.1611 321.4783 0001304  96.2396 263.8754 15.30197264151986
Epoch: 2026-06-19T19:07Z
TLE epoch observation values (Epoch: 2026-06-19T19:07:14.199Z)
Latitude
0.00005°
Longitude
126.64865°
Altitude
476.219 km
Speed
7.629 km/s
True Right ascension
21h 25m 54s
True Declination
0° 00' 00"
Sunlit
Object was in full shadow at epoch
Visualization orbit readout
Latitude
Unknown
Longitude
Unknown
Altitude
Unknown
Speed
Unknown
Apparent Right ascension
Unknown
Apparent Declination
Unknown
Sunlit
N/A
Visualization observer readout
Local Sidereal Time
00:54:43
Azimuth
Unknown
Elevation
Unknown
Doppler factor
Unknown
Orbital elements
Apogee altitude
476.373 km
Perigee altitude
474.586 km
Semi-major axis
6,853.616 km
Eccentricity
0.00013
Inclination
53.1611°
RAAN
321.4783°
Arg. of periapsis
96.2396°
True anomaly
263.86054°
Mean anomaly
263.8754°
Eccentric anomaly
263.86797°
Mean motion
3.82528 °/min
Orbital period
94.11 mins
BSTAR
0.000098063
Loading maneuver chart data...
Computing Atmospheric mass density...
Loading historical data...
Loading historical data...
Loading historical data...
Loading historical data...
Loading historical data...
Loading historical data...
Loading historical data...

Documentation

Showing up to 5 results
|